Flag for U.S.A. Weather past 2 weeks in St. Augustine, Florida, U.S.A.

Now
85 °F

Partly sunny.


Feels Like: 97 °F
Forecast: 77 / 86 °F
Wind: 9 mph from Southeast

Location: St. Augustine Airport

Current Time: Sep 1, 2015 at 7:06:28 PM

Latest Report: Sep 1, 2015 at 4:58 PM


Visibility: 6 mi

Pressure: 30.05 "Hg

Humidity: 80%

Dew point: 78 °F

Location of St. AugustineLocation

Historic Weather in St. Augustine — Graph

°F

St. Augustine temperature yesterday

Maximum temperature yesterday: 84 °F (at 12:02 PM)
Minimum temperature yesterday: 76 °F (at 6:58 AM)
Average temperature yesterday: 80 °F

Past Weeks' High & Low Weather Summary

 TemperatureHumidityPressure
High92 °F (Aug 25, 1:58 PM)97% (Aug 18, 12:58 AM)30.12 "Hg (Aug 18, 12:58 AM)
Low72 °F (Aug 26, 6:59 PM)52% (Aug 25, 1:58 PM)29.87 "Hg (Aug 25, 4:58 PM)
Average80 °F85%30.01 "Hg
* Reported Aug 17 4:58 PM — Sep 1 4:58 PM, St. Augustine, Weather by CustomWeather, © 2015

Note: Actual official high and low records may vary slightly from our data, if they occured in-between our weather recording intervals... More about our weather records

Advertising

St. Augustine weather history for previous 24 hours

 ConditionsComfort  
Time TempWeatherWind HumidityBarometerVisibility
4:58 PM
Tue, Sep 1
85 °FPartly sunny.9 mph80%30.05 "Hg6 mi
3:58 PM86 °FScattered clouds.9 mph77%30.06 "Hg10 mi
2:58 PM86 °FBroken clouds.12 mph77%30.06 "Hg10 mi
1:58 PM88 °FBroken clouds.12 mph75%30.07 "Hg10 mi
12:58 PM86 °FBroken clouds.8 mph80%30.08 "Hg7 mi
11:58 AM85 °FPartly sunny.12 mph83%30.10 "Hg7 mi
10:58 AM84 °FPartly sunny.3 mph77%30.09 "Hg7 mi
10:02 AM84 °FScattered clouds.6 mph79%30.10 "Hg10 mi
8:58 AM81 °FSunny.3 mph88%30.09 "Hg10 mi
7:58 AM78 °FClear.5 mph93%30.09 "Hg7 mi
6:58 AM76 °FClear.3 mph97%30.06 "Hg10 mi
5:58 AM76 °FClear.No wind97%30.04 "Hg10 mi
4:58 AM77 °FClear.No wind96%30.03 "Hg10 mi
4:03 AM77 °FPartly cloudy.No wind94%30.03 "Hg10 mi
3:58 AM77 °FPassing clouds.No wind96%30.03 "Hg10 mi
2:58 AM78 °FClear.No wind96%30.04 "Hg10 mi
1:58 AM79 °FClear.No wind94%30.05 "Hg10 mi
12:58 AM78 °FPartly cloudy.6 mph93%30.08 "Hg10 mi
10:58 PM
Mon, Aug 31
81 °FClear.No wind88%30.08 "Hg10 mi
9:58 PM82 °FPassing clouds.7 mph85%30.08 "Hg10 mi
8:58 PM82 °FPassing clouds.9 mph88%30.06 "Hg10 mi
7:58 PM82 °FBroken clouds.7 mph88%30.05 "Hg7 mi
Weather by CustomWeather, © 2015

See weather overviewHow to use our weather pages